Weather in Yalchik

Russia / Chuvash Republic     55°09′40″N   48°00′34″E
temp.,
°C
wind,
m/s
gust,
m/s
humid.,
%
clouds,
%
prec.,
mm/h
press.,
hPa
HPBL,
m
31 july, sat
sat3100:00+18sw3692100 0.8 1005134
03:00+18sw2493100 0.8 100484
06:00+19sw369221 0.2 1004301
09:00+22wsw677679 0.4 1004839
12:00+25wsw686362 0.1 10041411
15:00+25w696286 0.1 10051143
18:00+25w7125496 0.0 1006712
21:00+19wsw411700 0.0 1007207
1 august, sun
sun100:00+20sw41260100 0.0 1008307
03:00+17wsw49746 0.0 1009162
06:00+18w37745 0.0 1011198
09:00+24w565126 0.0 1012677
12:00+27w574019 0.0 10121906
15:00+28w573867 0.0 10122158
18:00+25w3654100 0.0 1012144
21:00+20wsw225843 0.0 101316
2 august, mon
mon200:00+19sw336443 0.0 101322
03:00+18ssw347026 0.0 101442
06:00+20ssw37665 0.0 1014163
09:00+27ssw58475 0.0 1013492
12:00+30wsw57410 0.0 10131126
15:00+32wsw57335 0.0 10122752
18:00+29ssw33485 0.0 101156
21:00+23ssw513560 0.1 1012259
3 august, tue
tue300:00+21sse23615 0.0 101024
03:00+20sse4115886 0.0 1010181
06:00+22sse412625 0.0 1009283
09:00+28s710435 0.0 1008536
12:00+32s6103563 0.0 1007889
15:00+33wsw693325 0.0 10072475
18:00+27w4852100 0.0 1008348
21:00+24ssw5125575 0.1 1009418
4 august, wed
wed400:00+22wsw2663100 0.1 1009119
03:00+21s3465100 0.1 100969
06:00+19wsw4785100 1.4 1010264
09:00+21wnw6773100 1.6 1010719
12:00+22wnw676427 0.0 10121068
15:00+24nw67480 0.0 10121654
18:00+24wnw475032 0.0 1012338
21:00+20nnw38591 0.0 1014263